Weather in Semtsy

Russia / Bryansk Oblast     52°48′38″N   33°27′29″E
temp.,
°C
wind,
m/s
gust,
m/s
humid.,
%
clouds,
%
prec.,
mm/h
press.,
hPa
HPBL,
m
12 may, wed
wed1200:00+10ese410935 0.0 1022390
03:00+6e411920 0.0 1023328
06:00+5e39943 0.0 1024247
09:00+11e58700 0.0 1023702
12:00+15e5652100 0.0 10211817
15:00+13e4666100 0.3 1019677
18:00+13e2474100 0.7 1016215
21:00+9ese3789100 0.9 1016173
13 may, thu
thu1300:00+7ese4109595 0.0 1014289
03:00+7ese41197100 0.4 1014449
06:00+7ese4109555 0.9 1013530
09:00+10se588492 0.9 1014831
12:00+12sse687060 0.3 10131232
15:00+12sse4663100 0.3 10131464
18:00+13s3668100 0.0 10131007
21:00+10sse257818 0.1 1014120
14 may, fri
fri1400:00+7ese379113 0.0 1014109
03:00+7ese389394 0.0 1014153
06:00+9ese498693 0.0 1013206
09:00+15ese597599 0.0 1012431
12:00+19ese697054 0.3 1011884
15:00+20sse5875100 2.9 10091127
18:00+19s477919 1.3 1008858
21:00+15s369265 2.0 100899
15 may, sat
sat1500:00+13s229390 0.1 100919
03:00+12sse119338 0.1 100810
06:00+13se2394100 0.1 100876
09:00+16s4685100 0.8 1008483
12:00+18ssw687151 0.4 10081298
15:00+17sw687976 1.7 10091109
18:00+16wsw58799 0.6 1010961
21:00+12wsw22910 0.6 101114
16 may, sun
sun1600:00+10sw22945 0.0 101215
03:00+9wsw22940 0.0 101329
06:00+9wsw11930 0.0 101416
09:00+15nnw11700 0.0 1015482
12:00+19ne125663 0.0 10151158
15:00+21ene3353100 0.0 10141331
18:00+20e3664100 0.0 1014566
21:00+14ene388575 0.0 1013124